COSMOS 2506 DEB, 47212

Orbit data source: Space-Track

COSMOS 2506 DEB, 47212 is space debris in SSO originally from a launch on Tue, 23 Jun 2015 UTC launched from the Plesetsk Missile And Space Complex (PKMTR). Debris objects in space refer to the collection of defunct objects orbiting the Earth. Examples of debris include non-operational satellites, rocket bodies, and fragments generated from explosions, collisions, or faulty payload assembly.

Loading next visibility...
Identifier
47212, 2015-029C
Orbit
SSO
Country
Flag of CISCIS
Related business
Manufacturer
Unknown
Mission
Spacecraft
Bus & Motor
Unknown
Mass
Unknown
Launch date (UTC)
2015-06-23 (11 years ago)
Launch vehicle
Unknown
Launch site
Plesetsk Missile And Space Complex (PKMTR)
Object type
Payload
Rocket body
Debris
Shape & HBR
Unknown shape, 0.1 m
Radar Cross Section
Small (<0.1 m²)

Expand to show TLE details & history
Last TLE update: 2 days ago

TLE from 2 days ago
0 COSMOS 2506 DEB
1 47212U 15029C   26105.44010805  .00001950  00000-0  31592-3 0  9997
2 47212  98.1188 178.4146 0005597 344.8992  15.2047 14.72375859288401
Epoch: 2026-04-15T10:33Z
TLE epoch observation values (Epoch: 2026-04-15T10:33:45.335Z)
Latitude
-0.00004°
Longitude
176.37373°
Altitude
652.7 km
Speed
7.533 km/s
True Right ascension
11h 53m 39s
True Declination
0° 00' 00"
Sunlit
Object was in full shadow at epoch
Visualization orbit readout
Latitude
Unknown
Longitude
Unknown
Altitude
Unknown
Speed
Unknown
Apparent Right ascension
Unknown
Apparent Declination
Unknown
Sunlit
N/A
Visualization observer readout
Local Sidereal Time
09:40:31
Azimuth
Unknown
Elevation
Unknown
Doppler factor
Unknown
Orbital elements
Apogee altitude
654.489 km
Perigee altitude
646.621 km
Semi-major axis
7,028.692 km
Eccentricity
0.00056
Inclination
98.1188°
RAAN
178.4146°
Arg. of periapsis
344.8992°
True anomaly
15.22153°
Mean anomaly
15.2047°
Eccentric anomaly
15.21312°
Mean motion
3.68325 °/min
Orbital period
97.74 mins
BSTAR
0.00031592
Loading maneuver chart data...
Computing Atmospheric mass density...
Loading historical data...
Loading historical data...
Loading historical data...
Loading historical data...
Loading historical data...
Loading historical data...
Loading historical data...
Other satellites on launch #29 in the year 2015 (2015-06-23 UTC)

Documentation

Showing up to 5 results
|